Miscellaneous Local Product
Issued by NWS North Platte, NE

Home | Current Version | Previous Version | Graphics & Text | Print | Product List | Glossary On
Versions: 1 2 3 4 5 6 7 8 9 10 11 12 13 14 15 16 17 18 19 20 21 22 23 24 25 26 27 28 29 30 31 32 33 34 35 36 37 38 39 40 41 42 43 44 45 46 47 48 49 50
000
AXUS43 KLBF 161410
MISLBF


WESTERN AND NORTH CENTRAL NEBRASKA HOURLY WEATHER ROUNDUP
NATIONAL WEATHER SERVICE NORTH PLATTE NE
800 AM CST TUE DEC 16 2014

***STATIONS NOT REPORTING VARIABLES SUCH AS SKY/WEATHER OR
PRESSURE ARE PROVIDED BY THE NEBRASKA DEPARTMENT OF
ROADS...RAWS...AND APRS NETWORKS...AND ARE NOT UNDER
NATIONAL WEATHER SERVICE QUALITY CONTROL***

...OBSERVATIONS IN AND NEAR THE EASTERN PANHANDLE OF NEBRASKA...

CITY           SKY/WX    TMP DP  RH WIND       PRES   REMARKS
PINE RIDGE     CLOUDY    20  16  84 CALM      30.24S
CHADRON        CLOUDY    20  17  88 CALM      30.24S
ALLIANCE       FOG       15  13  91 CALM      30.20F VSB 1/4
SIDNEY         MOCLDY     2  -2  83 W5        30.18F WCI  -8
WHITECLAY        N/A     19  15  84 CALM        N/A
CRESCENT LAKE    N/A     16  14  91 NW3         N/A
LISCO            N/A     18  14  84 CALM        N/A
BIG SPRINGS      N/A     17  16  94 W3          N/A
$$

...OBSERVATIONS IN NORTH CENTRAL NEBRASKA...

CITY           SKY/WX    TMP DP  RH WIND       PRES   REMARKS
VALENTINE      CLOUDY    20  16  84 N8        30.28R WCI  10
THEDFORD       CLOUDY    20  18  93 NW10      30.26S WCI   8
AINSWORTH      CLOUDY    20  18  89 N12       30.26S WCI   8
O`NEILL        CLOUDY    21  19  91 NW12      30.30R WCI   9
ORD            CLOUDY    22  18  85 N16       30.27R WCI   8
BROKEN BOW     CLOUDY    22  19  89 N13       30.26R WCI  10
BROWNLEE         N/A     17  15  90 CALM        N/A
SPRINGVIEW       N/A     21  17  84 NW5G12      N/A  WCI  15
BREWSTER         N/A     24  22  91 W10         N/A  WCI  14
ROSE             N/A     25  26 100 CALM        N/A
SARGENT          N/A     21  19  91 NW5G15      N/A  WCI  15
COMSTOCK         N/A     28  24  87 S16         N/A  WCI  15
EWING            N/A     20  19  93 CALM        N/A
$$

...OBSERVATIONS IN SOUTHWEST NEBRASKA AND FAR NORTHEAST COLORADO...

CITY           SKY/WX    TMP DP  RH WIND       PRES   REMARKS
WRAY           FAIR       7   4  89 W6        30.24F WCI  -3
IMPERIAL       CLOUDY    17  14  88 NW8       30.26F WCI   7
OGALLALA       CLOUDY    19  19  96 NW7       30.26R WCI  10
NORTH PLATTE   CLOUDY    19  16  88 NW12      30.29R WCI   7
MCCOOK         CLOUDY    20  16  84 W9        30.30R WCI   9
LEXINGTON      CLOUDY    23  19  85 N13       30.28R WCI  11
PAXTON           N/A     20  18  90 NW3         N/A
BRADY            N/A     19  16  87 CALM        N/A
GOTHENBURG       N/A     20  17  87 NW6         N/A  WCI  12
CALLAWAY         N/A     19  17  93 NW6         N/A  WCI  11
$$

...NORTH PLATTE AREA...

CITY           SKY/WX    TMP DP  RH WIND       PRES   REMARKS
AIRPORT        CLOUDY    19  16  88 NW12      30.29R WCI   7
DOWNTOWN         N/A     19  16  87 NW3G12      N/A
$$

...SOME WEATHER OBSERVATIONS FROM AROUND THE REGION...

CITY           SKY/WX    TMP DP  RH WIND       PRES   REMARKS
DENVER         MOCLDY    19  15  84 CALM      30.11S
LARAMIE        MOCLDY     9   3  77 SE10      30.06S WCI  -5
CHEYENNE       PTCLDY    17  13  84 W5        30.10S WCI  10
SCOTTSBLUFF    MIX PCPN   7   5  91 CALM      30.20F VSB 1/4
RAPID CITY     CLOUDY    19  17  92 NE8       30.23S WCI   9
PIERRE         CLOUDY    21  14  74 N17       30.32R WCI   7
WINNER         CLOUDY    20  15  81 N16       30.31  WCI   6
SIOUX FALLS    PTCLDY    14   9  80 NW16G28   30.23R WCI  -2
OMAHA          CLOUDY    23  17  78 NW18G28   30.25R WCI   9
GRAND ISLAND   CLOUDY    24  19  81 N20       30.28R WCI  10
KANSAS CITY    CLOUDY    28  23  81 NW17G28   30.17R WCI  16
WICHITA        PTCLDY    30  21  69 N17G25    30.29R WCI  18
HAYS           PTCLDY    23  12  63 NW9       30.30R WCI  13
LIBERAL        PTCLDY    21  14  73 W6        30.33R WCI  14
GOODLAND       PTCLDY    16  12  84 NW8       30.25F WCI   5
$$



USA.gov is the U.S. government's official web portal to all federal, state and local government web resources and services.